Simultaneous Nadir Overpasses (SNOs) Predictions

Prediction of SNOs between GOES-14 and NOAA-20 Satellite Orbit:

Table of predicted SNOs for the next 14.0 days since TLE Epoch: 10/26/2024
Index Date Time (GOES-14) GOES-14 Lat,Lon NOAA-20 Lat,Lon Distance(km) Time Diff (sec)
1 10/26/2024 20:44:54 0.07,-108.55 -0.36,-110.60 232.67 80
2 10/27/2024 20:28:49 0.08,-108.56 0.66,-106.07 283.94 80
3 10/29/2024 08:50:37 -0.07,-108.62 0.56,-111.33 309.78 80
4 10/30/2024 08:29:12 -0.08,-108.62 -0.46,-106.80 206.47 80
5 10/31/2024 20:51:09 0.06,-108.56 -0.73,-112.11 404.17 80
6 11/01/2024 20:35:04 0.07,-108.57 0.30,-107.58 112.40 80
7 11/03/2024 08:56:51 -0.05,-108.63 0.89,-112.85 480.83 80
8 11/04/2024 08:35:27 -0.06,-108.63 -0.14,-108.32 35.06 80
9 11/06/2024 20:38:38 0.05,-108.56 -0.05,-109.09 60.95 80
10 11/07/2024 20:22:32 0.06,-108.55 0.93,-104.56 455.07 80
